I4GOS-3 Weather Reports


Display with metric or nautical units.
time (UTC)temp
F
wind
direction
speed
MPH
gust
MPH
rain 1hr
in
rain 24hr
in
rain mn
in
humidity
%
barometer
mb
20260508151712 66 52 0.0 0.0 0.00 0.00 0.00 68 1015.0
20260508151211 66 60 0.0 0.0 0.00 0.00 0.00 69 1015.0
20260508150711 66 73 0.0 0.0 0.00 0.00 0.00 69 1015.0
20260508150210 66 79 0.0 0.0 0.00 0.00 0.00 71 1015.0
20260508145710 66 87 2.0 0.0 0.00 0.00 0.00 71 1014.9
20260508145210 66 70 0.0 0.0 0.00 0.00 0.00 71 1015.0
20260508144710 66 36 1.0 0.0 0.00 0.00 0.00 70 1015.0
20260508144210 66 91 5.0 0.0 0.00 0.00 0.00 71 1015.0
20260508143709 66 85 0.0 0.0 0.00 0.00 0.00 71 1015.0
20260508143209 66 59 4.0 0.0 0.00 0.00 0.00 71 1015.1
20260508142929 66 66 1.0 0.0 0.00 0.00 0.00 72 1015.1
20260508142756 66 66 1.0 0.0 0.00 0.00 0.00 72 1015.1
20260508142709 66 66 1.0 0.0 0.00 0.00 0.00 72 1015.1
20260508142208 65 41 1.0 0.0 0.00 0.00 0.00 72 1015.1
20260508141708 66 25 3.0 0.0 0.00 0.00 0.00 73 1015.1
20260508141208 66 27 0.0 0.0 0.00 0.00 0.00 73 1015.0
20260508140706 66 18 6.0 0.0 0.00 0.00 0.00 73 1015.0
20260508140206 66 54 4.0 0.0 0.00 0.00 0.00 74 1015.1
20260508135706 66 26 4.0 0.0 0.00 0.00 0.00 74 1015.1
20260508135206 66 359 0.0 0.0 0.00 0.00 0.00 74 1015.1
20260508134702 65 354 5.0 0.0 0.00 0.00 0.00 73 1015.1
20260508134202 66 21 0.0 0.0 0.00 0.00 0.00 73 1015.2
20260508133702 66 4 5.0 0.0 0.00 0.00 0.00 74 1015.3
20260508133202 66 347 7.0 0.0 0.00 0.00 0.00 73 1015.2
20260508132701 66 18 2.0 0.0 0.00 0.00 0.00 74 1015.2
20260508132201 66 347 0.0 0.0 0.00 0.00 0.00 74 1015.2
20260508131701 66 11 2.0 0.0 0.00 0.00 0.00 73 1015.2
20260508131200 66 26 3.0 0.0 0.00 0.00 0.00 74 1015.3
20260508130159 66 42 5.0 0.0 0.00 0.00 0.00 74 1015.3
20260508125659 66 31 6.0 0.0 0.00 0.00 0.00 73 1015.4
20260508125159 66 25 5.0 0.0 0.00 0.00 0.00 72 1015.4
20260508124659 67 15 7.0 0.0 0.00 0.00 0.00 72 1015.4
20260508124158 67 4 1.0 0.0 0.00 0.00 0.00 72 1015.3
20260508123658 67 67 2.0 0.0 0.00 0.00 0.00 72 1015.2
20260508123158 67 318 1.0 0.0 0.00 0.00 0.00 72 1015.2
20260508122658 67 58 3.0 0.0 0.00 0.00 0.00 72 1015.2
20260508122157 67 42 3.0 0.0 0.00 0.00 0.00 72 1015.2
20260508121657 66 4 4.0 0.0 0.00 0.00 0.00 72 1015.2
20260508121157 66 42 4.0 0.0 0.00 0.00 0.00 72 1015.3
20260508120657 66 344 3.0 0.0 0.00 0.00 0.00 72 1015.3
20260508120156 66 21 3.0 0.0 0.00 0.00 0.00 73 1015.3
20260508115656 66 51 4.0 0.0 0.00 0.00 0.00 73 1015.2
20260508115156 66 10 5.0 0.0 0.00 0.00 0.00 73 1015.2
20260508114656 66 52 5.0 0.0 0.00 0.00 0.00 73 1015.2
20260508114156 67 20 6.0 0.0 0.00 0.00 0.00 72 1015.2
20260508113655 67 23 3.0 0.0 0.00 0.00 0.00 72 1015.3
20260508113155 67 68 7.0 0.0 0.00 0.00 0.00 72 1015.3
20260508112656 67 69 0.0 0.0 0.00 0.00 0.00 72 1015.4
20260508112155 67 4 2.0 0.0 0.00 0.00 0.00 73 1015.5
20260508111655 66 4 4.0 0.0 0.00 0.00 0.00 73 1015.5
20260508111154 66 30 3.0 0.0 0.00 0.00 0.00 73 1015.5
20260508110654 66 29 3.0 0.0 0.00 0.00 0.00 73 1015.5
20260508110154 66 48 2.0 0.0 0.00 0.00 0.00 73 1015.7
20260508105653 66 60 9.0 0.0 0.00 0.00 0.00 72 1015.6
20260508105153 67 45 6.0 0.0 0.00 0.00 0.00 71 1015.6
20260508104653 67 54 0.0 0.0 0.00 0.00 0.00 72 1015.6
20260508104153 67 26 6.0 0.0 0.00 0.00 0.00 72 1015.5
20260508103653 66 349 5.0 0.0 0.00 0.00 0.00 73 1015.5
20260508103152 66 359 2.0 0.0 0.00 0.00 0.00 73 1015.6
20260508102652 66 4 0.0 0.0 0.00 0.00 0.00 73 1015.6
20260508102152 66 73 3.0 0.0 0.00 0.00 0.00 74 1015.5
20260508101652 65 54 3.0 0.0 0.00 0.00 0.00 74 1015.5
20260508101151 66 41 8.0 0.0 0.00 0.00 0.00 74 1015.5
20260508100651 66 33 8.0 0.0 0.00 0.00 0.00 74 1015.5
20260508100151 66 31 6.0 0.0 0.00 0.00 0.00 74 1015.5
20260508095651 67 79 0.0 0.0 0.00 0.00 0.00 74 1015.5
20260508095150 66 4 0.0 0.0 0.00 0.00 0.00 75 1015.5
20260508094650 66 70 2.0 0.0 0.00 0.00 0.00 75 1015.5
20260508094150 65 25 4.0 0.0 0.00 0.00 0.00 75 1015.5
20260508093650 65 37 3.0 0.0 0.00 0.00 0.00 75 1015.6
20260508093150 65 20 2.0 0.0 0.00 0.00 0.00 75 1015.5
20260508092649 65 9 3.0 0.0 0.00 0.00 0.00 75 1015.5
20260508092149 65 41 4.0 0.0 0.00 0.00 0.00 75 1015.5
20260508091649 65 36 0.0 0.0 0.00 0.00 0.00 75 1015.5
20260508091149 65 32 0.0 0.0 0.00 0.00 0.00 75 1015.6
20260508090648 65 359 0.0 0.0 0.00 0.00 0.00 75 1015.6
20260508090148 65 341 0.0 0.0 0.00 0.00 0.00 75 1015.5
20260508085648 65 325 0.0 0.0 0.00 0.00 0.00 75 1015.6
20260508085148 65 323 0.0 0.0 0.00 0.00 0.00 75 1015.5
20260508084648 64 324 0.0 0.0 0.00 0.00 0.00 76 1015.5
20260508084147 64 305 0.0 0.0 0.00 0.00 0.00 76 1015.5
20260508083647 64 299 0.0 0.0 0.00 0.00 0.00 76 1015.5
20260508083147 64 314 0.0 0.0 0.00 0.00 0.00 75 1015.6
20260508082646 64 314 0.0 0.0 0.00 0.00 0.00 75 1015.5
20260508082146 63 314 0.0 0.0 0.00 0.00 0.00 75 1015.5
20260508081645 63 294 0.0 0.0 0.00 0.00 0.00 75 1015.4
20260508081416 63 296 0.0 0.0 0.00 0.00 0.00 75 1015.4
20260508081144 63 296 0.0 0.0 0.00 0.00 0.00 75 1015.4
20260508080644 63 295 0.0 0.0 0.00 0.00 0.00 75 1015.4
20260508080144 63 288 0.0 0.0 0.00 0.00 0.00 75 1015.4
20260508075640 63 288 0.0 0.0 0.00 0.00 0.00 75 1015.4
20260508075140 63 285 0.0 0.0 0.00 0.00 0.00 75 1015.4
20260508074640 62 277 0.0 0.0 0.00 0.00 0.00 75 1015.4
20260508074140 62 248 0.0 0.0 0.00 0.00 0.00 75 1015.4
20260508073639 62 247 0.0 0.0 0.00 0.00 0.00 75 1015.3
20260508073139 62 249 0.0 0.0 0.00 0.00 0.00 75 1015.3
20260508072906 62 249 0.0 0.0 0.00 0.00 0.00 75 1015.2
20260508072639 62 249 0.0 0.0 0.00 0.00 0.00 75 1015.2
20260508072139 62 248 0.0 0.0 0.00 0.00 0.00 75 1015.1
20260508071638 62 254 0.0 0.0 0.00 0.00 0.00 75 1015.1
20260508071138 61 254 0.0 0.0 0.00 0.00 0.00 75 1015.0
20260508070638 61 254 0.0 0.0 0.00 0.00 0.00 75 1015.0
20260508070138 61 254 0.0 0.0 0.00 0.00 0.00 74 1014.9
20260508065637 61 255 0.0 0.0 0.00 0.00 0.00 74 1014.9
20260508065137 60 271 0.0 0.0 0.00 0.00 0.00 74 1014.9
20260508064919 60 268 0.0 0.0 0.00 0.00 0.00 74 1014.8
20260508064637 60 268 0.0 0.0 0.00 0.00 0.00 74 1014.8
20260508064137 60 271 0.0 0.0 0.00 0.00 0.00 73 1014.8
20260508063637 60 221 0.0 0.0 0.00 0.00 0.00 73 1014.8
20260508063136 60 220 0.0 0.0 0.00 0.00 0.00 73 1014.8
20260508062635 60 220 0.0 0.0 0.00 0.00 0.00 73 1014.8
20260508062134 59 220 0.0 0.0 0.00 0.00 0.00 72 1014.8
20260508061634 59 220 0.0 0.0 0.00 0.00 0.00 72 1014.8
20260508061134 59 222 0.0 0.0 0.00 0.00 0.00 72 1014.8
20260508060634 59 218 0.0 0.0 0.00 0.00 0.00 72 1014.8
20260508060134 59 222 0.0 0.0 0.00 0.00 0.00 71 1014.8
20260508055633 59 220 0.0 0.0 0.00 0.00 0.00 71 1014.7
20260508055133 59 226 0.0 0.0 0.00 0.00 0.00 71 1014.6
20260508054633 58 233 0.0 0.0 0.00 0.00 0.00 71 1014.6
20260508054133 58 223 0.0 0.0 0.00 0.00 0.00 71 1014.6
20260508053632 58 226 0.0 0.0 0.00 0.00 0.00 71 1014.5
20260508053132 58 242 0.0 0.0 0.00 0.00 0.00 71 1014.5
20260508052632 58 242 0.0 0.0 0.00 0.00 0.00 71 1014.5
20260508052132 58 242 0.0 0.0 0.00 0.00 0.00 71 1014.4
20260508051631 58 232 0.0 0.0 0.00 0.00 0.00 71 1014.4
20260508051131 57 223 0.0 0.0 0.00 0.00 0.00 71 1014.4
20260508050631 57 231 0.0 0.0 0.00 0.00 0.00 71 1014.4
20260508050131 57 227 0.0 0.0 0.00 0.00 0.00 71 1014.3
20260508045857 57 223 0.0 0.0 0.00 0.00 0.00 70 1014.3
20260508045630 57 223 0.0 0.0 0.00 0.00 0.00 70 1014.3
20260508045130 57 233 0.0 0.0 0.00 0.00 0.00 70 1014.2
20260508044630 57 237 0.0 0.0 0.00 0.00 0.00 70 1014.2
20260508044130 57 237 0.0 0.0 0.00 0.00 0.00 70 1014.2
20260508043630 56 237 0.0 0.0 0.00 0.00 0.00 70 1014.1
20260508043129 56 237 0.0 0.0 0.00 0.00 0.00 70 1014.0
20260508042629 56 237 0.0 0.0 0.00 0.00 0.00 70 1014.0
20260508042129 56 237 0.0 0.0 0.00 0.00 0.00 70 1013.9
20260508041629 56 237 0.0 0.0 0.00 0.00 0.00 70 1013.9
20260508041128 56 237 0.0 0.0 0.00 0.00 0.00 70 1013.9
20260508040628 56 247 0.0 0.0 0.00 0.00 0.00 71 1013.8
20260508040128 55 246 0.0 0.0 0.00 0.00 0.00 71 1013.7
20260508035628 55 246 0.0 0.0 0.00 0.00 0.00 71 1013.7
20260508035127 55 220 0.0 0.0 0.00 0.00 0.00 71 1013.6
20260508034627 55 220 0.0 0.0 0.00 0.00 0.00 71 1013.6
20260508034127 55 220 0.0 0.0 0.00 0.00 0.00 72 1013.6
20260508033627 55 222 0.0 0.0 0.00 0.00 0.00 72 1013.6
20260508033127 55 220 0.0 0.0 0.00 0.00 0.00 72 1013.7
20260508032626 55 217 0.0 0.0 0.00 0.00 0.00 72 1013.7
20260508032126 55 220 0.0 0.0 0.00 0.00 0.00 72 1013.6
20260508031626 56 209 0.0 0.0 0.00 0.00 0.00 72 1013.6
20260508031126 56 183 0.0 0.0 0.00 0.00 0.00 72 1013.7
20260508030626 56 183 0.0 0.0 0.00 0.00 0.00 72 1013.6
20260508030125 56 182 0.0 0.0 0.00 0.00 0.00 72 1013.6
20260508025625 56 174 0.0 0.0 0.00 0.00 0.00 72 1013.5
20260508025125 56 174 0.0 0.0 0.00 0.00 0.00 72 1013.5
20260508024625 56 174 0.0 0.0 0.00 0.00 0.00 72 1013.6
20260508024124 56 174 0.0 0.0 0.00 0.00 0.00 73 1013.6
20260508023624 55 174 0.0 0.0 0.00 0.00 0.00 73 1013.7
20260508023124 56 174 0.0 0.0 0.00 0.00 0.00 74 1013.7
20260508022624 56 174 0.0 0.0 0.00 0.00 0.00 74 1013.7
20260508022123 56 174 0.0 0.0 0.00 0.00 0.00 74 1013.6
20260508021623 56 173 0.0 0.0 0.00 0.00 0.00 74 1013.7
20260508021123 56 150 0.0 0.0 0.00 0.00 0.00 74 1013.7
20260508020623 56 146 0.0 0.0 0.00 0.00 0.00 75 1013.7
20260508020122 57 127 0.0 0.0 0.00 0.00 0.00 75 1013.8
20260508015707 57 127 0.0 0.0 0.00 0.00 0.00 74 1013.9
20260508015622 57 127 0.0 0.0 0.00 0.00 0.00 74 1013.9
20260508015122 57 127 0.0 0.0 0.00 0.00 0.00 75 1013.9
20260508014622 57 127 0.0 0.0 0.00 0.00 0.00 75 1013.7
20260508014121 57 127 0.0 0.0 0.00 0.00 0.00 75 1013.7
20260508013621 57 127 0.0 0.0 0.00 0.00 0.00 75 1013.7
20260508013121 57 127 0.0 0.0 0.00 0.00 0.00 75 1013.7
20260508012621 57 127 0.0 0.0 0.00 0.00 0.00 75 1013.8
20260508012121 57 127 0.0 0.0 0.00 0.00 0.00 75 1013.8
20260508011620 57 127 0.0 0.0 0.00 0.00 0.00 76 1013.9
20260508011120 57 127 0.0 0.0 0.00 0.00 0.00 76 1013.9
20260508010620 58 127 0.0 0.0 0.00 0.00 0.00 76 1013.8
20260508010118 58 127 0.0 0.0 0.00 0.00 0.00 76 1013.8
20260508005619 58 127 0.0 0.0 0.00 0.00 0.00 76 1013.7
20260508005118 58 127 0.0 0.0 0.00 0.00 0.00 76 1013.8
20260508004618 58 127 0.0 0.0 0.00 0.00 0.00 76 1013.7
20260508004118 59 127 0.0 0.0 0.00 0.00 0.00 76 1013.7
20260508003617 59 127 0.0 0.0 0.00 0.00 0.00 76 1013.8
20260508003117 59 127 0.0 0.0 0.00 0.00 0.00 76 1013.8
20260508002616 59 127 0.0 0.0 0.00 0.00 0.00 76 1013.9
20260508002116 60 113 0.0 0.0 0.00 0.00 0.00 76 1014.0
20260508001616 60 112 0.0 0.0 0.00 0.00 0.00 76 1014.0
20260508001116 60 112 0.0 0.0 0.00 0.00 0.00 76 1014.0
20260508000615 60 112 0.0 0.0 0.00 0.00 0.00 76 1014.1
20260508000115 60 112 0.0 0.0 0.00 0.00 0.00 76 1014.2
20260507235615 60 112 0.0 0.0 0.00 0.00 0.00 76 1014.2
20260507235115 60 112 0.0 0.0 0.00 0.00 0.00 76 1014.2
20260507234614 60 112 0.0 0.0 0.00 0.00 0.00 76 1014.2
20260507234114 60 112 0.0 0.0 0.00 0.00 0.00 76 1014.1
20260507233614 60 112 0.0 0.0 0.00 0.00 0.00 76 1014.1
20260507233114 60 112 0.0 0.0 0.00 0.00 0.00 76 1014.1
20260507232614 61 112 0.0 0.0 0.00 0.00 0.00 76 1014.1
20260507232113 61 112 0.0 0.0 0.00 0.00 0.00 76 1014.1
20260507231613 61 112 0.0 0.0 0.00 0.00 0.00 76 1014.2
20260507231112 61 112 0.0 0.0 0.00 0.00 0.00 76 1014.2
20260507230612 61 112 0.0 0.0 0.00 0.00 0.00 76 1014.3
20260507230112 61 112 0.0 0.0 0.00 0.00 0.00 76 1014.4
20260507225612 61 112 0.0 0.0 0.00 0.00 0.00 76 1014.3
20260507225112 61 112 0.0 0.0 0.00 0.00 0.00 76 1014.3
20260507224611 61 112 0.0 0.0 0.00 0.00 0.00 76 1014.3
20260507224111 61 112 0.0 0.0 0.00 0.00 0.00 76 1014.2
20260507223611 61 112 0.0 0.0 0.00 0.00 0.00 76 1014.2
20260507223111 61 112 0.0 0.0 0.00 0.00 0.00 76 1014.1
20260507222611 61 112 0.0 0.0 0.00 0.00 0.00 76 1014.1
20260507222110 61 112 0.0 0.0 0.00 0.00 0.00 76 1014.1
20260507221610 61 112 0.0 0.0 0.00 0.00 0.00 76 1014.0
20260507220610 61 113 0.0 0.0 0.00 0.00 0.00 76 1014.0
20260507220109 62 114 0.0 0.0 0.00 0.00 0.00 75 1014.0
20260507215609 62 114 0.0 0.0 0.00 0.00 0.00 75 1013.9
20260507215109 62 106 0.0 0.0 0.00 0.00 0.00 75 1014.0
20260507214609 62 104 0.0 0.0 0.00 0.00 0.00 75 1013.9
20260507214108 62 119 0.0 0.0 0.00 0.00 0.00 75 1014.0
20260507213608 63 122 0.0 0.0 0.00 0.00 0.00 75 1014.0
20260507213108 63 122 0.0 0.0 0.00 0.00 0.00 75 1013.9
20260507212608 63 126 0.0 0.0 0.00 0.00 0.00 74 1013.9
20260507212107 63 127 0.0 0.0 0.00 0.00 0.00 74 1013.9
20260507211607 64 120 0.0 0.0 0.00 0.00 0.00 74 1013.9
20260507211107 64 93 0.0 0.0 0.00 0.00 0.00 74 1013.8
20260507210607 64 93 0.0 0.0 0.00 0.00 0.00 74 1013.9
20260507210107 64 91 0.0 0.0 0.00 0.00 0.00 73 1013.9
20260507205606 64 91 0.0 0.0 0.00 0.00 0.00 73 1013.9
20260507205106 64 91 0.0 0.0 0.00 0.00 0.00 73 1013.9
20260507204606 65 91 0.0 0.0 0.00 0.00 0.00 72 1014.0
20260507204106 65 91 0.0 0.0 0.00 0.00 0.00 72 1014.1
20260507203605 65 91 0.0 0.0 0.00 0.00 0.00 72 1014.1
20260507203105 65 91 0.0 0.0 0.00 0.00 0.00 72 1014.1
20260507202604 65 91 0.0 0.0 0.00 0.00 0.00 72 1014.2
20260507202104 65 91 0.0 0.0 0.00 0.00 0.00 72 1014.2
20260507201604 65 91 0.0 0.0 0.00 0.00 0.00 72 1014.1
20260507201103 65 89 0.0 0.0 0.00 0.00 0.00 71 1014.1
20260507200603 65 91 0.0 0.0 0.00 0.00 0.00 71 1014.1
20260507200103 65 100 0.0 0.0 0.00 0.00 0.00 71 1014.2
20260507195601 65 104 0.0 0.0 0.00 0.00 0.00 71 1014.1
20260507195217 65 81 2.0 0.0 0.00 0.00 0.00 71 1014.1
20260507195101 65 81 2.0 0.0 0.00 0.00 0.00 71 1014.1
20260507194601 66 89 0.0 0.0 0.00 0.00 0.00 71 1014.1
20260507194059 66 102 0.0 0.0 0.00 0.00 0.00 71 1014.1
20260507193558 66 72 0.0 0.0 0.00 0.00 0.00 70 1014.0
20260507192558 66 101 0.0 0.0 0.00 0.00 0.00 70 1013.9
20260507192137 66 102 0.0 0.0 0.00 0.00 0.00 70 1013.9
20260507192056 66 102 0.0 0.0 0.00 0.00 0.00 70 1013.9
20260507191556 66 102 0.0 0.0 0.00 0.00 0.00 70 1013.9
20260507191155 66 102 0.0 0.0 0.00 0.00 0.00 70 1013.9
20260507191056 66 102 0.0 0.0 0.00 0.00 0.00 70 1013.9
20260507190702 66 102 0.0 0.0 0.00 0.00 0.00 70 1013.8
20260507190556 66 102 0.0 0.0 0.00 0.00 0.00 70 1013.8
20260507190055 66 113 0.0 0.0 0.00 0.00 0.00 69 1013.7
20260507185554 66 105 0.0 0.0 0.00 0.00 0.00 69 1013.8
20260507185054 66 103 0.0 0.0 0.00 0.00 0.00 69 1013.6
20260507184554 66 111 1.0 0.0 0.00 0.00 0.00 69 1013.6
20260507184054 66 112 2.0 0.0 0.00 0.00 0.00 69 1013.6
20260507183553 66 106 0.0 0.0 0.00 0.00 0.00 69 1013.5
20260507183053 67 106 0.0 0.0 0.00 0.00 0.00 69 1013.6
20260507182552 67 106 0.0 0.0 0.00 0.00 0.00 69 1013.6
20260507182052 67 118 0.0 0.0 0.00 0.00 0.00 69 1013.5
20260507181552 67 106 3.0 0.0 0.00 0.00 0.00 69 1013.4
20260507181053 67 102 0.0 0.0 0.00 0.00 0.00 69 1013.3
20260507180648 67 114 7.0 0.0 0.00 0.00 0.00 70 1013.2
20260507180551 67 114 7.0 0.0 0.00 0.00 0.00 70 1013.2
20260507180404 67 122 10.0 0.0 0.00 0.00 0.00 70 1013.2
20260507180129 67 122 10.0 0.0 0.00 0.00 0.00 70 1013.2
20260507180051 67 122 10.0 0.0 0.00 0.00 0.00 70 1013.2
20260507175550 67 96 9.0 0.0 0.00 0.00 0.00 71 1013.1
20260507175147 67 110 7.0 0.0 0.00 0.00 0.00 71 1013.1
20260507175050 67 110 7.0 0.0 0.00 0.00 0.00 71 1013.1
20260507174550 67 104 4.0 0.0 0.00 0.00 0.00 71 1013.0
20260507174050 67 131 7.0 0.0 0.00 0.00 0.00 72 1012.8
20260507173550 67 113 4.0 0.0 0.00 0.00 0.00 72 1012.8
20260507173049 67 85 13.0 0.0 0.00 0.00 0.00 72 1012.8
20260507172549 67 110 10.0 0.0 0.00 0.00 0.00 73 1012.9
20260507172049 67 70 9.0 0.0 0.00 0.00 0.00 74 1012.9
20260507171549 67 110 5.0 0.0 0.00 0.00 0.00 74 1012.9
20260507171120 67 123 9.0 0.0 0.00 0.00 0.00 74 1012.9
20260507171048 67 123 9.0 0.0 0.00 0.00 0.00 74 1012.9
20260507170548 67 64 9.0 0.0 0.00 0.00 0.00 74 1012.9
20260507170048 67 106 11.0 0.0 0.00 0.00 0.00 73 1012.9
20260507165548 68 102 12.0 0.0 0.00 0.00 0.00 72 1012.9
20260507164547 68 96 3.0 0.0 0.00 0.00 0.00 70 1012.9
20260507164047 68 75 10.0 0.0 0.00 0.00 0.00 69 1012.9
20260507163547 69 67 10.0 0.0 0.00 0.00 0.00 67 1012.8
20260507163047 69 95 7.0 0.0 0.00 0.00 0.00 64 1012.8
20260507162546 69 77 3.0 0.0 0.00 0.00 0.00 62 1012.9
20260507162046 69 56 4.0 0.0 0.00 0.00 0.00 59 1012.9
20260507161546 69 75 4.0 0.0 0.00 0.00 0.00 57 1012.9
20260507161046 69 46 7.0 0.0 0.00 0.00 0.00 59 1012.9
20260507160545 68 108 1.0 0.0 0.00 0.00 0.00 59 1013.0
20260507160045 68 42 9.0 0.0 0.00 0.00 0.00 58 1013.0
20260507155545 68 106 7.0 0.0 0.00 0.00 0.00 59 1013.1
20260507155045 68 89 7.0 0.0 0.00 0.00 0.00 60 1013.1
20260507154545 68 46 10.0 0.0 0.00 0.00 0.00 60 1013.1
20260507154044 68 36 5.0 0.0 0.00 0.00 0.00 59 1013.1
20260507153544 68 56 8.0 0.0 0.00 0.00 0.00 56 1013.1
20260507153044 69 34 8.0 0.0 0.00 0.00 0.00 55 1013.1
20260507152544 69 38 10.0 0.0 0.00 0.00 0.00 56 1013.2
20260507152043 69 108 5.0 0.0 0.00 0.00 0.00 58 1013.1